This is the latest recevied weather packets stored in our database for station/object W4OTS. If no packets are shown the sender has not sent any weather packets the latest 10 day(s).
| Time | Temp. | Humidity | Pressure | Rain* | Wind** | Luminosity | Snow |
|---|---|---|---|---|---|---|---|
| 1778085963 | 17.78° C | 99% | 1016.6 hPa | 4.83 mm | - | 103 W/m² | - |
| 1778085661 | 17.78° C | 98% | 1016.9 hPa | 4.32 mm | - | 108 W/m² | - |
| 1778085356 | 17.78° C | 97% | 1017.5 hPa | 1.78 mm | - | 50 W/m² | - |
| 1778085052 | 18.33° C | 96% | 1017.6 hPa | 3.05 mm | - | 80 W/m² | - |
| 1778084748 | 18.89° C | 93% | 1017.1 hPa | 3.05 mm | - | 118 W/m² | - |
| 1778084445 | 19.44° C | 90% | 1017.2 hPa | 1.78 mm | - | 72 W/m² | - |
| 1778084143 | 19.44° C | 87% | 1017.1 hPa | 0 mm | - | 73 W/m² | - |
| 1778083839 | 19.44° C | 87% | 1016.9 hPa | 0 mm | - | 128 W/m² | - |
| 1778083537 | 19.44° C | 87% | 1017 hPa | 0 mm | - | 124 W/m² | - |
| 1778083234 | 20° C | 85% | 1016.7 hPa | 0 mm | - | 82 W/m² | - |
| 1778082933 | 20° C | 82% | 1016.8 hPa | 0 mm | - | 115 W/m² | - |
| 1778081829 | 20° C | 81% | 1016.2 hPa | 0 mm | - | 101 W/m² | - |
| 1778081527 | 20° C | 81% | 1015.9 hPa | 0 mm | - | 108 W/m² | - |
| 1778081224 | 20° C | 80% | 1015.6 hPa | 0 mm | - | 140 W/m² | - |
| 1778080922 | 20° C | 81% | 1015.6 hPa | 0 mm | - | 147 W/m² | - |
| 1778080621 | 20° C | 80% | 1015.9 hPa | 0 mm | - | 202 W/m² | - |
| 1778080316 | 20° C | 81% | 1015.7 hPa | 0 mm | - | 303 W/m² | - |
| 1778080013 | 19.44° C | 82% | 1015.7 hPa | 0 mm | - | 301 W/m² | - |
| 1778079710 | 19.44° C | 81% | 1015.8 hPa | 0 mm | - | 289 W/m² | - |
| 1778079407 | 19.44° C | 82% | 1015.6 hPa | 0 mm | - | 236 W/m² | - |
| 1778079104 | 18.89° C | 83% | 1015.5 hPa | 0 mm | - | 262 W/m² | - |
| 1778078802 | 18.89° C | 83% | 1015.5 hPa | 0 mm | - | 210 W/m² | - |
| 1778078498 | 18.89° C | 84% | 1015.5 hPa | 0 mm | - | 208 W/m² | - |
| 1778078195 | 18.33° C | 85% | 1015.5 hPa | 0 mm | - | 168 W/m² | - |
| 1778077893 | 18.33° C | 85% | 1015.6 hPa | 0 mm | - | 115 W/m² | - |
* Rain latest hour (hover to see other rain measurements)
** Current wind speed in m/s (hover to see current wind gust speed)